Zurück zum Katalog

COSMOS 911

AktivMilitärPO
NORAD 10019·PAYLOAD·🇷🇺 Russia

Gestartet May 25, 1977 von Plesetsk Cosmodrome

Loading…

Nächste Überflüge (nächste 24 Stunden)

TLE

AktuellSource: Space-Track

Epoche: Sep 14, 2026, 11:23 UTC

1 10019U 77039A   26257.47448383  .00000030  00000-0  14972-4 0  9990
2 10019  82.9439  70.6920 0025950  94.0908 295.2417 13.75431332474134

Verfolge COSMOS 911 in Echtzeit mit AllMySat

Download on the App Store